Date,TemperatureHighF,TemperatureAvgF,TemperatureLowF,DewpointHighF,DewpointAvgF,DewpointLowF,HumidityHigh,HumidityAvg,HumidityLow,PressureMaxIn,PressureMinIn,WindSpeedMaxMPH,WindSpeedAvgMPH,GustSpeedMaxMPH,PrecipitationSumIn
2013-1-1,23.0,22.2,22.0,14.0,13.2,12.0,70,68,66,30.04,30.02,0,0,0,0.00
2013-1-2,27.0,25.9,25.0,20.0,18.6,17.0,77,73,69,30.05,29.98,3,0,3,0.00
2013-1-3,32.0,28.2,26.0,24.0,21.1,20.0,79,75,70,30.02,29.91,5,0,5,0.00
2013-1-4,33.0,28.5,26.0,27.0,21.7,19.0,78,75,74,30.04,29.85,13,2,15,0.00
2013-1-5,37.0,32.3,24.0,31.0,25.5,18.0,81,76,70,30.12,29.81,8,0,8,0.02
2013-1-6,36.0,32.4,26.0,29.0,24.9,17.0,77,74,70,30.19,29.75,4,0,4,0.02
2013-1-7,39.0,33.7,24.0,29.0,25.1,17.0,76,71,64,30.18,29.86,14,3,24,0.04
2013-1-8,42.0,36.1,31.0,32.0,28.7,25.0,81,74,66,30.07,29.86,8,1,14,0.04
2013-1-9,40.0,38.0,35.0,32.0,29.5,26.0,75,71,67,30.35,29.76,14,4,16,0.00
2013-1-10,42.0,35.2,29.0,30.0,26.4,23.0,81,70,57,30.45,29.98,8,1,17,0.00
2013-1-11,47.0,40.6,36.0,43.0,36.1,27.0,87,84,62,29.98,29.57,10,1,17,0.30
2013-1-12,51.0,44.6,35.0,45.0,37.4,26.0,100,76,66,29.90,29.54,14,2,21,0.02
2013-1-13,34.0,31.2,26.0,28.0,24.6,18.0,80,76,71,29.95,29.80,6,0,7,0.00
2013-1-14,27.0,24.0,22.0,19.0,15.4,14.0,74,69,64,30.30,29.95,8,1,8,0.00
2013-1-15,31.0,28.4,19.0,20.0,18.3,12.0,74,65,61,30.29,29.99,6,1,6,0.00
2013-1-16,33.0,30.3,27.0,26.0,22.2,18.0,82,72,65,29.99,29.60,15,2,20,0.00
2013-1-17,27.0,20.1,16.0,19.0,9.5,4.0,71,63,58,30.28,29.92,7,1,7,0.00
2013-1-18,40.0,24.9,16.0,33.0,16.5,5.0,79,70,60,30.30,29.69,8,1,11,0.10
2013-1-19,40.0,36.5,30.0,35.0,30.8,20.0,84,80,70,29.77,29.43,9,1,25,0.20
2013-1-20,28.0,18.5,16.0,20.0,9.2,6.0,75,66,61,30.11,29.53,13,2,19,0.02
2013-1-21,15.0,9.1,2.0,15.0,0.8,-6.0,100,68,63,30.06,29.93,9,1,11,0.00
2013-1-22,10.0,5.4,2.0,2.0,-2.8,-6.0,72,68,66,30.19,30.05,13,1,13,0.00
2013-1-23,18.0,13.5,10.0,12.0,5.2,1.0,78,69,61,30.17,29.98,8,1,8,0.00
2013-1-24,19.0,14.9,12.0,11.0,6.9,3.0,76,70,63,30.55,30.13,6,0,6,0.00
2013-1-25,23.0,18.5,13.0,16.0,11.4,4.0,79,74,65,30.37,29.87,8,0,8,0.00
2013-1-26,33.0,25.8,22.0,23.0,18.5,15.0,78,73,65,30.32,29.98,1,0,1,0.00
2013-1-27,34.0,28.6,24.0,24.0,21.5,18.0,83,75,63,30.32,29.94,4,0,7,0.00
2013-1-28,36.0,32.8,28.0,31.0,28.6,24.0,85,84,83,29.94,29.75,0,0,0,0.00
2013-1-29,52.0,40.2,33.0,49.0,36.4,29.0,88,86,84,29.91,29.44,14,1,14,0.57
2013-1-30,36.0,32.0,25.0,33.0,28.5,20.0,87,86,83,29.45,29.14,4,0,6,0.63
2013-1-31,24.0,19.7,17.0,20.0,12.9,10.0,84,75,70,29.84,29.25,0,0,0,0.00
2013-2-1,17.0,15.1,11.0,10.0,7.9,3.0,75,73,70,30.09,29.83,6,0,9,0.00
2013-2-2,24.0,15.7,10.0,14.0,7.9,3.0,76,71,62,30.05,29.95,1,0,6,0.00
2013-2-3,21.0,16.6,14.0,13.0,9.0,7.0,78,71,66,29.95,29.79,4,0,6,0.00
2013-2-4,25.0,15.6,6.0,12.0,6.3,-1.0,74,66,56,29.94,29.87,3,0,3,0.00
2013-2-5,25.0,18.0,6.0,20.0,11.5,0.0,80,75,70,29.95,29.65,1,0,3,0.00
2013-2-6,32.0,24.0,16.0,20.0,15.1,9.0,79,69,59,30.17,29.95,3,0,3,0.00
2013-2-7,32.0,29.2,26.0,27.0,24.5,21.0,83,82,80,30.11,29.97,3,0,6,0.00
2013-2-8,28.0,24.9,17.0,22.0,19.3,11.0,84,79,72,30.33,30.01,5,0,5,0.00
2013-2-9,34.0,19.5,7.0,22.0,12.1,2.0,80,73,59,30.34,30.11,2,0,4,0.00
2013-2-10,40.0,31.3,26.0,35.0,25.6,19.0,86,79,72,30.11,29.40,19,2,19,0.00
2013-2-11,42.0,36.1,30.0,38.0,31.2,22.0,86,82,71,29.76,29.31,9,1,9,0.22
2013-2-12,30.0,30.0,30.0,22.0,22.0,22.0,71,71,71,29.76,29.76,0,0,1,0.00
2013-2-13,40.0,36.2,33.0,31.0,29.1,27.0,80,75,69,29.67,29.62,8,1,9,0.04
2013-2-14,35.0,32.4,25.0,31.0,28.0,19.0,85,84,79,29.86,29.54,1,0,2,0.08
2013-2-15,28.0,23.7,20.0,19.0,16.2,13.0,78,73,66,30.07,29.86,4,0,4,0.02
2013-2-16,25.0,19.8,17.0,15.0,11.3,7.0,77,69,61,30.09,29.99,1,0,3,0.00
2013-2-17,26.0,18.8,13.0,15.0,10.8,7.0,77,71,60,30.13,30.00,3,0,6,0.00
2013-2-18,44.0,32.3,20.0,34.0,21.9,12.0,84,65,54,30.01,29.31,8,1,8,0.02
2013-2-19,40.0,27.1,16.0,36.0,21.8,9.0,85,80,73,29.87,29.20,8,2,14,0.18
2013-2-20,17.0,17.0,17.0,10.0,10.0,10.0,73,73,73,29.88,29.87,2,1,2,0.00
2013-2-21,23.0,19.5,17.0,16.0,13.1,11.0,79,76,72,30.32,30.21,3,0,6,0.00
2013-2-22,29.0,25.8,20.0,25.0,20.5,12.0,84,80,72,30.21,29.75,12,2,16,0.00
2013-2-23,34.0,29.9,26.0,29.0,24.4,21.0,85,80,71,29.80,29.70,7,1,7,0.00
2013-2-24,41.0,33.5,30.0,31.0,26.9,25.0,83,77,66,30.08,29.77,4,0,4,0.00
2013-2-25,42.0,33.3,25.0,30.0,26.2,20.0,83,75,61,30.14,30.06,6,0,7,0.00
2013-2-26,40.0,33.9,29.0,28.0,25.2,21.0,80,70,60,30.10,29.70,9,3,24,0.02
2013-2-27,36.0,33.3,32.0,30.0,28.5,26.0,86,82,75,29.70,29.59,6,0,8,0.02
2013-2-28,34.0,31.9,28.0,30.0,26.2,20.0,86,79,72,30.04,29.67,9,1,11,0.00
2013-3-1,29.0,25.7,23.0,20.0,18.1,16.0,77,72,69,30.18,30.04,6,0,7,0.00
2013-3-2,25.0,24.1,24.0,17.0,16.3,16.0,73,72,71,30.14,30.13,0,0,0,0.00
2013-3-3,31.0,27.2,24.0,20.0,17.7,15.0,72,67,61,30.06,30.02,2,0,2,0.00
2013-3-4,33.0,25.9,19.0,22.0,17.1,12.0,75,69,62,30.12,30.06,4,0,4,0.00
2013-3-5,39.0,26.0,16.0,26.0,17.8,9.0,77,71,57,30.10,29.93,8,1,8,0.00
2013-3-6,42.0,33.3,28.0,32.0,26.5,22.0,81,76,67,30.23,30.02,3,0,6,0.00
2013-3-7,37.0,30.2,26.0,25.0,21.4,19.0,80,70,61,30.39,30.23,3,0,3,0.00
2013-3-8,38.0,29.3,20.0,26.0,20.9,14.0,79,71,59,30.45,30.30,6,0,10,0.00
2013-3-9,43.0,34.6,24.0,31.0,25.0,18.0,82,69,53,30.32,29.87,6,1,10,0.30
2013-3-10,40.0,36.9,35.0,35.0,32.4,31.0,86,84,80,29.87,29.73,4,0,4,1.85
2013-3-11,43.0,38.1,32.0,39.0,34.0,28.0,87,86,82,29.73,29.42,6,0,6,0.46
2013-3-12,34.0,30.1,26.0,28.0,23.6,17.0,85,76,68,29.84,29.53,6,0,6,0.02
2013-3-13,36.0,28.5,24.0,23.0,18.7,15.0,77,66,53,30.17,29.83,6,0,7,0.02
2013-3-14,39.0,31.2,25.0,25.0,20.5,16.0,73,64,56,30.19,29.95,8,1,11,0.02
2013-3-15,39.0,33.5,26.0,29.0,24.3,16.0,80,69,55,29.95,29.82,9,2,11,0.02
2013-3-16,33.0,25.5,20.0,21.0,16.3,11.0,78,68,59,29.98,29.84,0,0,4,0.02
2013-3-17,30.0,24.9,20.0,19.0,13.0,9.0,72,60,51,30.27,29.98,8,0,8,0.02
2013-3-18,41.0,27.5,17.0,27.0,17.7,7.0,81,67,45,30.12,29.44,9,1,13,0.00
2013-3-19,31.0,26.8,22.0,26.0,20.0,17.0,81,75,66,29.81,29.43,8,2,14,0.00
2013-3-20,33.0,25.8,21.0,18.0,14.9,12.0,72,63,52,29.88,29.80,8,2,10,0.00
2013-3-21,34.0,28.5,24.0,25.0,20.3,16.0,78,71,63,29.94,29.81,10,1,11,0.00
2013-3-22,37.0,31.1,26.0,27.0,22.7,18.0,77,71,64,30.01,29.91,3,0,5,0.02
2013-3-23,41.0,33.7,29.0,31.0,25.3,21.0,77,71,64,30.09,30.01,4,0,6,0.04
2013-3-24,40.0,33.7,30.0,29.0,24.9,23.0,77,70,60,30.05,29.80,4,1,7,0.02
2013-3-25,36.0,32.7,31.0,28.0,25.3,24.0,77,74,71,29.99,29.78,5,1,7,0.00
2013-3-26,46.0,37.8,33.0,35.0,30.1,26.0,81,74,62,30.13,29.97,4,0,5,0.00
2013-3-27,45.0,37.4,31.0,32.0,27.8,25.0,79,68,54,30.20,30.11,6,1,7,0.00
2013-3-28,45.0,35.6,28.0,31.0,26.1,21.0,79,69,56,30.24,30.19,6,1,11,0.00
2013-3-29,47.0,35.0,25.0,30.0,24.4,19.0,82,67,49,30.25,30.18,3,0,3,0.00
2013-3-30,50.0,38.5,28.0,36.0,25.7,19.0,80,61,42,30.18,29.76,7,1,10,0.16
2013-3-31,44.0,38.8,30.0,38.0,32.1,-99.9,85,79,67,29.77,29.57,9,1,11,0.28
2013-4-1,35.0,29.6,26.0,21.0,17.8,14.0,68,61,52,30.06,29.76,4,1,7,0.00
2013-4-2,40.0,31.8,26.0,20.0,17.1,13.0,63,54,45,30.22,30.02,6,0,6,0.00
2013-4-3,40.0,32.3,28.0,21.0,17.9,14.0,64,55,46,30.40,30.21,2,0,4,0.00
2013-4-4,48.0,37.7,28.0,35.0,26.5,16.0,79,64,50,30.23,29.89,8,2,18,0.02
2013-4-5,39.0,34.4,29.0,30.0,22.8,18.0,79,63,50,30.21,29.99,7,1,7,0.02
2013-4-6,47.0,37.4,30.0,37.0,25.8,18.0,73,63,55,30.16,29.51,13,3,19,0.02
2013-4-7,48.0,41.3,32.0,43.0,34.1,26.0,84,76,61,29.99,29.41,6,1,7,0.18
2013-4-8,41.0,36.9,32.0,36.0,30.9,26.0,84,79,71,29.97,29.71,5,0,11,0.22
2013-4-9,41.0,37.7,34.0,37.0,33.5,30.0,86,85,83,30.08,29.95,4,0,5,0.36
2013-4-10,41.0,36.0,33.0,35.0,31.0,29.0,86,82,74,30.09,29.99,2,0,3,0.40
2013-4-11,37.0,34.4,31.0,30.0,26.6,24.0,84,73,60,30.06,29.75,8,2,10,0.22
2013-4-12,32.0,31.1,31.0,28.0,27.1,27.0,85,85,85,29.69,29.59,0,0,0,0.20
2013-4-22,45.0,41.5,39.0,31.0,30.2,29.0,69,64,58,30.12,30.06,1,0,3,0.00
2013-4-23,60.0,44.0,35.0,47.0,34.6,29.0,82,70,56,30.06,29.83,7,1,8,0.36
2013-4-24,48.0,40.1,34.0,33.0,28.9,25.0,80,65,44,29.94,29.88,6,0,6,0.08
2013-4-25,41.0,38.4,37.0,32.0,27.7,25.0,74,65,60,29.94,29.85,4,1,6,0.00
2013-4-27,67.0,59.6,49.0,47.0,41.2,35.0,59,51,48,30.12,30.04,4,1,6,0.12
2013-4-28,67.0,53.0,43.0,47.0,39.0,35.0,76,60,45,30.04,29.80,0,0,0,0.08
2013-4-29,64.0,53.9,46.0,53.0,46.6,37.0,84,76,64,29.83,29.77,6,0,6,0.10
2013-4-30,79.0,64.0,51.0,62.0,54.5,47.0,86,73,52,29.83,29.70,8,0,11,0.18
2013-5-1,75.0,62.2,44.0,61.0,50.1,35.0,78,65,56,30.26,29.83,7,0,7,0.02
2013-5-2,55.0,45.4,39.0,42.0,36.4,33.0,80,71,60,30.27,30.18,4,0,6,0.00
2013-5-3,52.0,44.8,38.0,42.0,37.6,33.0,83,76,66,30.21,30.02,1,0,3,0.12
2013-5-4,68.0,53.7,40.0,53.0,42.5,35.0,84,67,51,30.07,30.01,2,0,2,0.02
2013-5-5,73.0,55.4,46.0,50.0,39.4,35.0,68,55,44,30.08,30.02,2,0,5,0.00
2013-5-6,46.0,42.5,40.0,35.0,34.4,33.0,77,73,65,30.04,30.02,0,0,0,0.00
2013-5-9,71.0,55.5,44.0,52.0,41.9,36.0,77,61,51,30.02,29.93,4,0,6,0.02
2013-5-10,44.0,41.4,40.0,38.0,34.9,-99.9,85,81,77,30.01,29.91,5,1,7,0.73
2013-5-11,48.0,41.1,35.0,42.0,35.3,31.0,86,80,70,29.91,29.70,5,1,7,0.12
2013-5-12,44.0,39.5,36.0,33.0,28.9,-99.9,77,68,57,30.06,29.81,9,2,9,0.02
2013-5-13,64.0,44.9,31.0,42.0,28.6,24.0,79,55,38,30.13,29.99,4,1,8,0.00
2013-5-14,70.0,52.2,42.0,46.0,37.6,27.0,76,58,41,29.99,29.51,13,2,18,0.00
2013-5-15,77.0,64.1,51.0,53.0,47.2,42.0,76,55,40,29.75,29.40,11,4,13,0.00
2013-5-16,76.0,52.8,46.0,50.0,17.6,-99.9,68,51,40,30.04,29.74,4,0,5,0.00
2013-5-17,48.0,44.1,42.0,41.0,37.1,35.0,79,76,68,30.12,30.03,0,0,0,0.00
2013-5-19,86.0,72.2,58.0,63.0,55.1,48.0,72,56,44,29.94,29.80,4,0,4,0.00
2013-5-20,87.0,70.9,54.0,70.0,57.7,44.0,79,64,48,29.84,29.69,9,0,9,0.00
2013-5-21,78.0,64.1,52.0,64.0,55.6,44.0,86,74,60,29.73,29.61,6,1,6,0.14
2013-5-22,58.0,51.9,48.0,52.0,46.9,44.0,86,83,77,29.73,29.65,3,0,3,0.30
2013-5-23,54.0,46.3,41.0,45.0,39.5,34.0,87,78,61,30.24,29.73,9,1,24,0.59
2013-5-24,56.0,46.3,39.0,38.0,35.4,33.0,81,67,49,30.39,30.23,4,1,6,0.02
2013-5-25,74.0,48.5,35.0,52.0,37.2,30.0,84,66,47,30.40,30.28,4,0,4,0.00
2013-5-26,74.0,50.8,37.0,52.0,38.1,31.0,82,63,47,30.33,30.19,3,0,4,0.00
2013-5-27,77.0,57.4,42.0,46.0,40.7,33.0,77,56,31,30.20,29.95,7,1,11,0.00
2013-5-28,59.0,56.3,53.0,53.0,48.2,43.0,84,75,57,29.95,29.71,5,1,9,0.06
2013-5-29,72.0,59.1,50.0,62.0,52.9,46.0,86,80,70,29.89,29.71,3,0,4,0.02
2013-5-30,89.0,76.8,59.0,69.0,63.9,54.0,86,66,51,29.88,29.79,5,0,7,0.00
2013-5-31,77.0,70.8,69.0,65.0,62.8,61.0,80,76,66,29.83,29.74,4,1,9,0.02
2013-6-1,73.0,65.3,62.0,63.0,56.5,52.0,81,73,65,29.65,29.61,1,0,1,1.81
2013-6-2,61.0,50.0,40.0,55.0,43.1,34.0,85,78,65,30.00,29.60,4,0,4,0.36
2013-6-3,75.0,52.8,37.0,50.0,41.5,33.0,86,67,41,30.10,29.99,6,1,7,0.02
2013-6-4,80.0,52.6,39.0,54.0,41.6,34.0,84,68,41,30.18,30.10,4,0,4,0.00
2013-6-5,59.0,53.1,48.0,52.0,46.6,42.0,84,79,66,30.16,30.02,6,0,9,0.06
2013-6-6,77.0,57.7,52.0,53.0,46.0,43.0,79,65,43,30.03,29.91,4,0,7,0.02
2013-6-7,69.0,58.0,50.0,50.0,45.6,40.0,82,65,47,29.96,29.89,0,0,0,0.00
2013-6-8,74.0,56.1,46.0,55.0,44.6,38.0,79,66,42,30.02,29.88,0,0,0,0.00
2013-6-9,82.0,65.6,50.0,61.0,52.7,42.0,79,64,46,30.05,29.91,4,0,6,0.00
2013-6-10,73.0,64.0,54.0,59.0,52.7,48.0,81,67,60,29.91,29.77,6,0,6,0.00
2013-6-11,84.0,62.4,52.0,66.0,54.0,47.0,86,75,51,29.86,29.78,0,0,3,0.00
2013-6-12,76.0,62.3,53.0,60.0,53.9,48.0,85,75,58,29.89,29.72,0,0,0,0.00
2013-6-13,67.0,58.6,53.0,55.0,50.3,46.0,82,74,62,30.01,29.72,3,0,4,0.00
2013-6-14,53.0,51.2,50.0,47.0,45.4,44.0,82,81,80,30.03,30.00,0,0,0,0.00
2013-6-15,72.0,68.6,64.0,59.0,57.8,56.0,80,68,61,29.93,29.78,0,0,0,0.02
2013-6-16,80.0,66.2,58.0,65.0,57.3,51.0,86,75,56,29.84,29.72,6,1,7,0.95
2013-6-17,67.0,60.5,54.0,55.0,52.3,48.0,84,75,64,29.97,29.81,4,0,5,0.02
2013-6-18,70.0,58.5,49.0,55.0,48.6,42.0,86,71,55,30.08,29.97,0,0,0,0.00
2013-6-19,85.0,59.4,45.0,58.0,45.5,40.0,84,62,40,30.13,30.06,0,0,1,0.00
2013-6-20,90.0,67.3,52.0,58.0,48.4,41.0,70,53,29,30.13,30.07,3,0,3,0.00
2013-6-22,78.0,66.3,62.0,63.0,57.2,54.0,81,73,60,30.05,29.92,2,0,2,0.00
2013-6-23,85.0,73.1,61.0,70.0,64.5,55.0,87,75,57,29.97,29.81,5,0,6,0.16
2013-6-24,85.0,75.4,69.0,69.0,65.3,61.0,81,71,59,29.96,29.84,4,0,7,0.16
2013-6-25,81.0,72.4,67.0,67.0,63.0,61.0,82,73,62,29.85,29.78,5,1,12,0.00
2013-6-26,87.0,70.9,60.0,69.0,61.2,55.0,86,73,56,29.80,29.72,1,0,3,0.00
2013-6-27,83.0,70.4,63.0,67.0,61.4,57.0,83,74,58,29.78,29.65,5,0,5,0.02
2013-6-28,79.0,71.1,62.0,64.0,60.6,57.0,84,70,59,29.60,29.57,0,0,4,0.00
2013-6-29,76.0,66.8,60.0,63.0,58.8,53.0,86,76,63,29.80,29.60,0,0,0,0.06
2013-6-30,78.0,63.9,55.0,60.0,53.7,49.0,86,70,52,30.01,29.80,0,0,0,0.06
2013-7-1,78.0,64.9,54.0,61.0,53.6,48.0,81,67,54,30.11,30.01,1,0,1,0.00
2013-7-2,71.0,60.2,49.0,57.0,49.0,41.0,76,67,60,30.12,30.05,0,0,0,0.00
2013-7-3,80.0,65.8,58.0,59.0,54.2,51.0,81,67,49,30.07,29.99,4,0,4,0.00
2013-7-4,83.0,68.0,62.0,65.0,58.3,54.0,84,72,54,30.05,29.99,1,0,6,0.00
2013-7-5,89.0,75.6,66.0,67.0,60.3,56.0,77,60,45,30.03,29.97,3,0,3,0.00
2013-7-6,90.0,74.1,67.0,66.0,59.3,54.0,74,61,43,30.01,29.94,3,0,4,0.00
2013-7-7,90.0,76.8,69.0,68.0,64.5,60.0,79,67,48,29.96,29.89,3,0,4,0.06
2013-7-8,78.0,69.1,66.0,72.0,63.0,-99.9,88,83,76,29.96,29.88,4,0,6,2.14
2013-7-9,80.0,70.0,65.0,70.0,64.2,61.0,88,82,71,29.97,29.71,6,0,6,0.26
2013-7-10,80.0,70.2,61.0,67.0,59.3,-99.9,87,73,55,29.94,29.70,3,0,5,0.26
2013-7-11,79.0,66.1,58.0,62.0,56.2,49.0,86,72,51,30.09,29.94,1,0,3,0.00
2013-7-12,85.0,65.2,55.0,64.0,55.3,49.0,85,72,49,30.14,30.06,1,0,1,0.00
2013-7-13,87.0,71.1,61.0,65.0,57.9,53.0,82,65,44,30.16,30.07,3,0,3,0.00
2013-7-14,89.0,73.1,64.0,68.0,60.8,54.0,76,66,48,30.22,30.16,3,0,6,0.00
2013-7-15,88.0,75.3,67.0,73.0,64.8,60.0,80,71,56,30.27,30.20,0,0,0,0.08
2013-7-16,95.0,79.2,68.0,75.0,67.8,61.0,81,69,51,30.25,30.17,1,0,42,0.04
2013-7-17,96.0,80.8,77.0,76.0,71.2,70.0,79,73,51,30.21,30.17,2,0,4,0.04
2013-7-18,94.0,88.2,82.0,75.0,72.8,70.0,69,61,54,30.03,29.80,8,2,9,0.00
2013-7-19,90.0,81.0,71.0,74.0,69.3,61.0,74,68,60,29.80,29.65,13,1,13,0.04
2013-7-20,78.0,67.4,60.0,62.0,53.6,-99.9,82,64,44,29.98,29.74,2,0,6,0.02
2013-7-21,76.0,64.7,55.0,59.0,52.7,47.0,79,66,52,30.00,29.89,3,0,4,0.00
2013-7-22,86.0,72.3,61.0,69.0,61.0,54.0,79,69,56,29.89,29.62,4,1,4,0.06
2013-7-23,77.0,67.9,60.0,65.0,55.6,47.0,81,65,56,29.93,29.62,6,2,9,0.02
2013-7-24,75.0,63.5,56.0,55.0,49.6,46.0,73,62,49,30.04,29.92,6,0,6,0.00
2013-7-25,82.0,67.6,53.0,58.0,51.5,45.0,76,58,42,30.04,29.94,3,0,3,0.00
2013-7-26,83.0,69.0,62.0,66.0,57.6,48.0,85,68,52,29.94,29.79,7,1,8,0.28
2013-7-27,62.0,59.1,53.0,57.0,53.4,48.0,86,82,73,29.84,29.76,3,0,5,0.26
2013-7-28,65.0,58.2,53.0,55.0,51.9,48.0,85,80,65,29.86,29.71,0,0,1,0.14
2013-7-29,71.0,60.0,56.0,59.0,54.0,52.0,87,81,64,30.13,29.86,0,0,0,0.14
2013-7-30,75.0,64.1,55.0,62.0,56.6,51.0,87,77,60,30.16,30.07,0,0,0,0.04
2013-7-31,78.0,68.3,61.0,65.0,60.0,55.0,82,75,64,30.07,29.86,4,0,4,0.00
2013-8-1,80.0,67.5,60.0,63.0,58.0,56.0,86,73,50,29.88,29.84,0,0,1,0.00
2013-8-2,78.0,68.0,62.0,65.0,59.1,56.0,84,74,61,29.89,29.78,4,0,5,0.20
2013-8-3,78.0,65.9,57.0,59.0,55.7,52.0,86,71,51,30.08,29.89,0,0,0,0.02
2013-8-4,76.0,64.4,55.0,58.0,52.9,46.0,80,67,48,30.18,30.08,1,0,6,0.02
2013-8-5,70.0,61.5,50.0,59.0,52.6,44.0,83,73,60,30.08,29.84,1,0,7,0.02
2013-8-6,79.0,70.0,62.0,68.0,61.2,55.0,82,74,67,29.85,29.75,5,0,11,0.02
2013-8-7,76.0,69.2,64.0,66.0,62.2,58.0,87,79,68,29.95,29.63,3,0,3,0.50
2013-8-8,79.0,64.8,52.0,61.0,54.0,47.0,86,69,50,30.02,29.96,0,0,1,0.30
2013-8-9,80.0,67.5,55.0,63.0,55.9,47.0,81,67,55,29.96,29.89,3,0,3,0.00
2013-8-10,79.0,65.7,53.0,60.0,53.5,47.0,85,66,48,30.11,30.01,0,0,0,0.00
2013-8-11,77.0,67.0,60.0,62.0,57.6,52.0,85,73,54,30.07,29.99,0,0,1,0.00
2013-8-12,79.0,65.4,58.0,65.0,57.5,52.0,87,77,59,30.00,29.85,7,0,7,0.22
2013-8-13,72.0,60.0,55.0,54.0,47.9,-99.9,80,67,53,30.08,29.94,8,3,14,0.22
2013-8-14,73.0,62.3,56.0,55.0,50.0,47.0,77,65,47,30.16,30.08,4,1,6,0.00
2013-8-15,79.0,59.4,56.0,57.0,39.8,-99.9,84,61,43,30.08,30.03,5,0,5,0.00
2013-8-16,83.0,66.7,56.0,64.0,52.8,-99.9,85,66,45,30.16,30.07,3,0,4,0.00
2013-8-17,85.0,68.2,56.0,59.0,53.8,50.0,81,62,38,30.21,30.14,3,0,6,0.00
2013-8-18,85.0,70.0,61.0,61.0,53.9,-99.9,71,59,43,30.18,30.04,2,0,4,0.00
2013-8-19,84.0,67.9,64.0,64.0,47.8,-99.9,81,66,49,30.05,29.95,4,1,4,0.00
2013-8-20,88.0,74.6,68.0,68.0,61.0,-99.9,79,66,51,30.03,29.96,5,1,8,0.00
2013-8-21,89.0,78.2,69.0,70.0,65.0,61.0,79,64,52,30.00,29.85,6,1,8,0.32
2013-8-22,78.0,70.7,61.0,67.0,62.7,55.0,86,76,62,30.10,29.90,0,0,1,0.40
2013-8-23,80.0,66.9,56.0,65.0,58.4,52.0,87,75,59,30.17,30.10,4,0,4,0.00
2013-8-24,84.0,69.0,58.0,62.0,56.7,52.0,81,67,45,30.23,30.15,3,0,5,0.00
2013-8-25,87.0,75.7,63.0,68.0,60.6,-99.9,74,61,54,30.15,29.97,8,2,18,0.00
2013-8-26,88.0,77.4,71.0,72.0,66.9,64.0,84,71,57,30.03,29.91,5,1,6,0.06
2013-8-27,73.0,70.3,69.0,69.0,65.5,63.0,87,84,78,29.97,29.81,0,0,0,1.01
2013-8-28,79.0,74.7,67.0,72.0,67.3,62.0,85,78,73,30.01,29.96,0,0,0,0.06
2013-8-29,88.0,74.3,65.0,75.0,66.8,61.0,88,78,61,30.05,29.93,0,0,0,0.00
2013-8-30,81.0,73.5,70.0,72.0,66.4,63.0,83,79,72,29.93,29.75,0,0,0,0.02
2013-8-31,81.0,70.1,63.0,68.0,63.2,59.0,87,79,63,29.86,29.78,0,0,0,0.02
2013-9-1,82.0,69.6,63.0,69.0,61.3,-99.9,87,77,64,29.83,29.65,0,0,0,0.02
2013-9-2,65.0,61.2,59.0,58.0,53.3,51.0,79,76,71,29.92,29.76,0,0,0,0.00
2013-9-3,74.0,65.0,58.0,59.0,54.6,51.0,81,70,58,29.99,29.91,0,0,0,0.00
2013-9-4,71.0,64.5,59.0,62.0,56.5,48.0,84,76,63,30.12,29.90,0,0,0,0.00
2013-9-5,71.0,59.7,51.0,50.0,46.5,43.0,74,62,48,30.28,30.12,0,0,0,0.00
2013-9-6,77.0,63.6,49.0,62.0,51.5,40.0,75,65,57,30.20,29.91,0,0,0,0.00
2013-9-7,77.0,72.0,67.0,69.0,64.8,55.0,84,78,60,29.98,29.83,0,0,0,0.40
2013-9-8,75.0,64.6,57.0,61.0,53.7,-99.9,83,71,50,30.10,29.98,0,0,0,0.02
2013-9-9,78.0,68.6,60.0,70.0,60.8,52.0,82,76,69,30.00,29.68,0,0,0,0.00
2013-9-10,88.0,79.6,71.0,72.0,68.5,64.0,79,69,56,29.94,29.68,0,0,0,0.00
2013-9-11,77.0,70.6,65.0,68.0,64.1,61.0,87,80,73,29.94,29.87,0,0,0,1.18
2013-9-12,72.0,63.9,55.0,64.0,55.4,46.0,87,74,60,30.05,29.88,0,0,0,0.04
2013-9-13,63.0,55.5,49.0,48.0,44.9,40.0,81,68,56,30.15,30.04,0,0,0,0.00
2013-9-14,68.0,55.6,44.0,54.0,46.2,39.0,83,71,60,30.11,29.96,0,0,0,0.00
2013-9-15,61.0,57.7,53.0,56.0,50.2,-99.9,85,79,74,30.17,29.93,0,0,0,0.16
2013-9-16,62.0,53.4,45.0,47.0,43.1,39.0,81,69,55,30.37,30.17,0,0,0,0.02
2013-9-17,68.0,53.5,44.0,49.0,44.2,39.0,83,72,51,30.34,30.12,0,0,0,0.00
2013-9-18,68.0,54.4,49.0,48.0,46.6,44.0,84,75,69,30.12,29.88,0,0,0,0.00
2013-9-19,78.0,70.6,65.0,69.0,64.2,58.0,87,80,71,29.90,29.69,0,0,0,0.71
2013-9-20,72.0,68.2,63.0,66.0,62.9,57.0,87,83,79,29.71,29.63,0,0,0,0.04
2013-9-21,62.0,57.4,52.0,56.0,49.2,43.0,83,74,65,29.89,29.69,0,0,0,0.04
2013-9-22,57.0,51.7,50.0,44.0,40.6,-99.9,77,67,60,30.06,29.88,0,0,0,0.02
2013-9-23,65.0,52.1,43.0,48.0,43.2,38.0,84,73,55,30.14,30.06,0,0,0,0.00
2013-9-24,69.0,54.7,47.0,53.0,46.4,42.0,85,75,55,30.09,29.97,0,0,0,0.00
2013-9-25,71.0,56.9,46.0,59.0,49.4,42.0,86,77,52,30.00,29.95,0,0,0,0.00
2013-9-26,72.0,59.0,48.0,59.0,52.1,44.0,86,78,63,30.07,29.97,0,0,0,0.00
2013-9-27,79.0,62.1,53.0,57.0,51.9,48.0,85,71,44,30.15,30.07,0,0,0,0.00
2013-9-28,80.0,68.0,58.0,60.0,54.8,51.0,78,64,48,30.08,29.78,6,0,10,0.00
2013-9-29,73.0,59.0,48.0,59.0,49.6,-99.9,85,74,52,30.00,29.78,4,0,4,0.32
2013-9-30,70.0,56.6,46.0,54.0,47.8,42.0,86,74,53,29.96,29.80,4,0,4,0.02
2013-10-1,68.0,65.9,58.0,61.0,58.5,48.0,80,77,69,29.82,29.77,1,0,6,0.00
2013-10-2,73.0,62.2,53.0,58.0,49.5,43.0,79,64,43,30.04,29.82,1,0,4,0.00
2013-10-3,69.0,61.1,53.0,59.0,51.1,42.0,86,71,54,30.01,29.86,4,1,10,0.57
2013-10-4,64.0,61.2,59.0,60.0,57.2,54.0,87,87,86,30.01,29.84,3,0,7,0.55
2013-10-5,67.0,60.9,57.0,60.0,56.4,53.0,88,85,79,30.01,29.75,13,2,17,0.53
2013-10-6,64.0,59.6,52.0,60.0,55.0,48.0,88,86,78,29.75,29.59,8,1,10,0.53
2013-10-7,61.0,54.1,50.0,51.0,47.9,45.0,87,80,67,30.01,29.54,5,1,10,0.00
2013-10-8,69.0,55.7,46.0,54.0,48.0,42.0,86,77,53,30.12,30.01,3,0,6,0.00
2013-10-9,71.0,62.3,54.0,56.0,51.9,47.0,80,69,57,30.18,30.08,4,0,6,0.00
2013-10-10,70.0,56.5,50.0,57.0,49.4,44.0,84,77,63,30.15,30.06,2,0,3,0.04
2013-10-11,72.0,61.1,50.0,57.0,50.8,45.0,83,70,54,30.08,29.98,3,0,3,0.04
2013-10-12,76.0,63.4,54.0,60.0,53.2,45.0,84,70,56,30.00,29.87,4,1,7,0.10
2013-10-13,61.0,54.8,50.0,51.0,45.1,-99.9,82,71,63,30.34,30.00,2,0,2,0.10
2013-10-14,62.0,51.2,44.0,45.0,41.8,39.0,83,71,51,30.39,30.22,3,0,3,0.00
2013-10-15,60.0,52.9,45.0,55.0,46.4,40.0,87,78,69,30.22,29.66,13,2,13,0.38
2013-10-16,59.0,52.7,50.0,55.0,47.4,43.0,87,82,78,29.82,29.64,6,1,7,0.32
2013-10-17,52.0,48.0,43.0,44.0,41.4,37.0,83,78,74,29.83,29.70,3,0,3,0.02
2013-10-18,59.0,49.3,42.0,51.0,43.8,37.0,86,81,72,29.77,29.70,3,0,4,0.48
2013-10-19,52.0,46.1,41.0,44.0,40.4,36.0,87,81,63,29.77,29.65,3,0,6,0.81
2013-10-20,52.0,45.6,41.0,42.0,38.4,-99.9,86,78,64,29.78,29.59,4,0,8,0.28
2013-10-21,50.0,45.0,38.0,45.0,37.3,27.0,86,74,63,29.75,29.59,6,1,34,0.24
2013-10-22,49.0,41.0,36.0,40.0,33.2,27.0,84,74,66,29.84,29.67,9,2,9,0.30
2013-10-23,49.0,40.4,38.0,35.0,32.0,30.0,84,72,57,29.84,29.79,8,1,10,0.32
2013-10-24,49.0,42.0,38.0,36.0,32.9,30.0,80,71,58,30.10,29.83,6,1,8,0.04
2013-10-25,49.0,44.8,40.0,36.0,33.4,31.0,79,64,58,30.19,29.72,8,2,16,0.04
2013-10-26,51.0,47.3,42.0,40.0,36.6,32.0,78,66,61,29.93,29.58,11,2,12,0.02
2013-10-27,50.0,45.3,42.0,38.0,32.3,-99.9,65,62,57,29.93,29.81,6,1,8,0.02
2013-10-28,50.0,41.6,35.0,38.0,29.6,-99.9,72,65,56,30.40,29.92,9,2,12,0.00
2013-10-29,44.0,37.3,32.0,31.0,27.6,25.0,76,68,56,30.42,30.15,4,0,7,0.00
2013-10-30,56.0,46.5,40.0,47.0,39.6,32.0,83,77,69,30.15,29.76,1,0,1,0.14
2013-10-31,62.0,56.2,52.0,58.0,52.1,47.0,88,86,83,29.78,29.03,2,0,2,0.99
2013-11-1,54.0,48.7,45.0,50.0,44.4,40.0,87,85,82,29.64,29.01,3,0,3,0.87
2013-11-2,46.0,42.9,39.0,41.0,36.5,33.0,85,78,69,30.09,29.64,6,2,7,0.02
2013-11-3,48.0,40.1,35.0,34.0,30.0,-99.9,78,70,59,30.29,30.09,7,1,8,0.00
2013-11-4,53.0,45.1,38.0,38.0,33.2,30.0,76,64,50,30.29,30.06,7,2,14,0.00
2013-11-5,57.0,52.4,50.0,47.0,44.6,36.0,84,75,58,30.21,29.94,5,0,6,0.02
2013-11-6,54.0,47.7,39.0,50.0,43.2,32.0,87,84,76,29.97,29.61,6,1,7,0.04
2013-11-7,40.0,38.6,37.0,32.0,29.4,28.0,75,69,65,30.04,29.97,6,1,7,0.00
2013-11-8,44.0,39.5,37.0,30.0,28.4,27.0,70,64,55,30.17,29.99,6,1,6,0.00
2013-11-9,49.0,43.4,40.0,42.0,34.7,-99.9,82,74,65,29.97,29.60,10,4,15,0.00
2013-11-10,44.0,42.9,42.0,34.0,32.4,30.0,72,66,61,30.16,29.80,11,3,11,0.00
2013-11-11,45.0,35.4,30.0,34.0,26.9,20.0,82,71,61,30.32,29.94,9,2,11,0.02
2013-11-12,33.0,30.5,29.0,24.0,20.4,18.0,79,66,58,30.52,30.34,5,2,9,0.00
2013-11-13,42.0,35.9,29.0,31.0,25.4,18.0,74,66,61,30.39,29.86,13,4,25,0.02
2013-11-14,46.0,42.8,41.0,37.0,31.9,28.0,79,65,60,29.91,29.78,11,4,16,0.02
2013-11-15,50.0,43.5,36.0,40.0,36.4,32.0,85,76,66,29.87,29.79,6,1,6,0.02
2013-11-16,55.0,47.2,40.0,51.0,40.0,-99.9,85,78,76,29.89,29.46,10,1,10,0.06
2013-11-17,60.0,54.8,44.0,55.0,50.6,39.0,87,85,83,29.47,29.03,10,2,15,0.48
2013-11-18,44.0,37.4,34.0,39.0,27.6,23.0,83,68,64,30.08,29.29,9,2,13,0.02
2013-11-19,39.0,34.4,31.0,27.0,24.3,23.0,75,66,59,30.30,30.08,0,0,4,0.00
2013-11-20,47.0,38.8,34.0,28.0,25.6,23.0,66,59,47,30.25,30.11,5,1,7,0.00
2013-11-21,44.0,41.3,38.0,39.0,34.8,28.0,84,78,60,30.14,30.09,1,0,1,0.00
2013-11-22,42.0,34.2,31.0,38.0,28.4,22.0,85,79,65,30.32,30.13,6,0,6,0.00
2013-11-23,32.0,24.4,20.0,22.0,13.6,-99.9,71,65,63,30.50,30.21,8,2,9,0.00
2013-11-24,30.0,22.4,20.0,20.0,12.3,10.0,69,64,62,30.50,30.06,7,1,10,0.00
2013-11-25,36.0,32.5,30.0,30.0,25.1,20.0,84,74,61,30.06,29.82,14,6,19,0.02
2013-11-26,36.0,31.9,23.0,29.0,25.1,15.0,80,76,71,30.03,29.86,6,2,13,0.02
2013-11-27,29.0,26.3,24.0,20.0,17.2,15.0,73,68,64,30.12,29.97,8,2,14,0.00
2013-11-28,27.0,24.6,23.0,21.0,18.8,15.0,84,78,65,30.34,30.12,0,0,1,0.00
2013-11-29,34.0,24.2,13.0,26.0,18.6,8.0,84,79,73,30.52,30.34,6,0,6,0.00
2013-12-1,38.0,35.3,33.0,31.0,29.4,28.0,82,79,74,30.05,29.96,5,0,5,0.02
2013-12-2,40.0,34.8,31.0,30.0,28.0,25.0,82,76,66,29.95,29.81,5,0,6,0.00
2013-12-3,32.0,31.4,31.0,27.0,24.8,23.0,85,76,71,29.88,29.80,7,2,13,0.00
2013-12-4,49.0,36.8,31.0,46.0,32.8,27.0,88,86,85,29.82,29.36,12,3,16,0.02
2013-12-5,49.0,32.8,22.0,46.0,25.2,13.0,88,73,66,30.07,29.36,15,5,24,0.02
2013-12-6,24.0,21.1,20.0,14.0,12.2,11.0,73,68,62,30.32,30.07,8,1,11,0.00
2013-12-7,21.0,18.9,18.0,11.0,7.7,-99.9,69,63,58,30.51,30.32,8,2,8,0.00
2013-12-8,22.0,18.7,16.0,16.0,10.8,6.0,81,71,63,30.49,29.95,7,1,9,0.00
2013-12-9,29.0,22.1,12.0,23.0,15.5,4.0,83,76,68,29.98,29.73,16,3,19,0.00
2013-12-10,17.0,14.7,11.0,12.0,7.7,4.0,79,73,69,30.03,29.74,9,1,10,0.00
2013-12-11,15.0,14.2,13.0,8.0,5.5,4.0,72,68,64,30.30,30.05,8,1,12,0.00
2013-12-12,21.0,16.1,11.0,12.0,8.5,3.0,76,72,67,30.30,30.03,9,2,13,0.00
2013-12-13,23.0,19.0,12.0,14.0,9.7,2.0,70,67,64,30.30,30.03,7,0,8,0.00
2013-12-14,21.0,16.7,11.0,16.0,8.9,-99.9,80,73,64,30.31,29.85,8,1,9,0.00
2013-12-15,23.0,20.7,19.0,18.0,14.3,11.0,82,76,69,29.92,29.70,8,1,9,0.02
2013-12-16,22.0,19.2,16.0,14.0,11.8,9.0,78,73,66,30.07,29.87,11,1,11,0.02
2013-12-17,29.0,23.9,18.0,23.0,18.3,12.0,82,79,76,29.86,29.73,3,0,3,0.00
2013-12-18,28.0,25.6,24.0,22.0,17.9,16.0,77,72,68,29.97,29.66,4,0,6,0.00
2013-12-19,34.0,30.3,27.0,27.0,23.6,20.0,78,76,74,30.02,29.66,6,1,6,0.00
2013-12-20,27.0,25.4,23.0,21.0,20.0,18.0,82,80,76,29.94,29.78,7,0,13,0.00
2013-12-21,32.0,28.1,26.0,26.0,22.0,-99.9,84,80,77,29.89,29.75,6,0,6,0.00
2013-12-22,28.0,24.3,21.0,22.0,19.5,15.0,84,81,78,29.99,29.71,6,1,8,0.00
2013-12-23,25.0,21.5,19.0,18.0,15.1,11.0,81,76,71,30.27,29.99,4,0,4,0.00
2013-12-24,19.0,17.1,13.0,13.0,10.2,7.0,78,74,69,30.41,30.25,6,0,6,0.04
2013-12-25,25.0,21.6,18.0,19.0,16.0,12.0,82,78,75,30.30,29.96,8,1,9,0.02
2013-12-26,26.0,23.6,21.0,19.0,16.9,14.0,82,75,68,30.15,29.93,6,0,6,0.10
2013-12-27,37.0,27.8,19.0,31.0,21.8,13.0,80,78,75,30.17,29.82,9,1,20,0.02
2013-12-28,43.0,36.7,34.0,34.0,29.2,-99.9,83,77,70,29.93,29.68,4,0,9,0.02
2013-12-29,39.0,26.8,15.0,33.0,20.5,8.0,83,76,70,30.03,29.66,6,1,9,0.00
2013-12-30,17.0,14.7,13.0,8.0,6.5,5.0,72,69,65,30.19,30.03,5,0,6,0.00
2013-12-31,13.0,11.5,10.0,4.0,3.2,1.0,74,69,65,30.28,29.99,6,1,11,0.00
2014-1-1,17.0,13.4,10.0,8.0,4.9,2.0,73,68,63,30.35,30.27,5,1,7,0.00
2014-1-2,16.0,12.1,10.0,9.0,3.7,1.0,75,68,65,30.31,30.22,4,0,13,0.00